Powrót do katalogu

FENGYUN 1C DEB

AktywnyPO
NORAD 41016·DEBRIS·🇨🇳 China

Wystrzelony May 10, 1999 z Taiyuan Satellite Launch Center

Loading…

Następne Przeloty (najbliższe 24 godziny)

TLE

Starzejące sięSource: Space-Track

Epoka: Sep 6, 2026, 23:24 UTC

1 41016U 99025EXW 26249.97556896  .00001645  00000-0  80641-3 0  9993
2 41016  98.2508 310.7788 0145806 124.3665 237.1401 14.13582945637973

Śledź FENGYUN 1C DEB w czasie rzeczywistym z AllMySat

Download on the App Store